{"data":{"norad_id":53199,"epoch":"2026-05-25T03:40:46.544736Z","epoch_age_seconds":55564,"freshness":"FRESH","line1":"1 53199U 22084L   26145.15331649 -.00013736  00000+0 -94806-3 0  9994","line2":"2 53199  97.4452 206.2116 0001508 117.9147 242.2233 15.05717382210888","mean_motion":15.05717382,"eccentricity":0.0001508,"inclination_deg":97.4452,"raan_deg":206.2116,"arg_perigee_deg":117.9147,"mean_anomaly_deg":242.2233,"bstar":-0.00094806,"rev_number":21088,"period_min":95.635476963631,"perigee_km":548.25981596805,"apogee_km":550.34913231666,"semimajor_km":6927.4414741424,"source":"CELESTRAK","updated_at":"2026-05-25T13:38:17.350675Z"}}